Weather History for KJAN - December, 2014

Change the Weather History Date:

Wednesday, December 31, 2014

  Actual Average Record
Temperature  
Mean Temperature 41 °F 46 °F  
Max Temperature 50 °F 56 °F 80 °F (1951)
Min Temperature 31 °F 36 °F 10 °F (1983)
Degree Days  
Heating Degree Days 24 19  
Month to date heating degree days 428 540  
Since 1 July heating degree days 928 950  
Cooling Degree Days 0 0  
Month to date cooling degree days 2 8  
Year to date cooling degree days 2285 2261  
Moisture  
Dew Point 29 °F    
Average Humidity 66    
Maximum Humidity 85    
Minimum Humidity 46    
Precipitation  
Precipitation 0.00 in 0.14 in 2.58 in (2010)
Month to date precipitation 3.93 5.15  
Year to date precipitation 56.19 54.14  
Sea Level Pressure  
Sea Level Pressure 30.45 in    
Wind  
Wind Speed 8 mph (North)    
Max Wind Speed 15 mph    
Max Gust Speed 20 mph    
Visibility 10 miles    
Events      
T = Trace of Precipitation, MM = Missing Value Source: NWS Daily Summary

Daily Weather History Graph

Daily Weather History Graph

Search for Another Location

Airport or City:

Trip Planner

Search our weather history database for the weather conditions in past years. The results will help you decide how hot, cold, wet, or windy it might be!

Date:

Astronomy

Dec. 31, 2014 Rise Set
Actual Time 7:01 AM CST 5:05 PM CST
Civil Twilight 6:34 AM CST 5:32 PM CST
Nautical Twilight 6:03 AM CST 6:03 PM CST
Astronomical Twilight 5:33 AM CST 6:33 PM CST
Moon 1:48 PM CST (12/31) 2:36 AM CST (12/31)
Length of Visible Light 10h 58m
Length of Day
10h 04m
Waxing Gibbous, 80% of the Moon is Illuminated
Dec 31
Waxing Gibbous
Jan 4
Full
Jan 13
Last Quarter
Jan 20
New
Jan 26
First Quarter

Hourly Weather History & Observations

Time (CST) Temp. Windchill Dew Point Humidity Pressure Visibility Wind Dir Wind Speed Gust Speed Precip Events Conditions
12:54 AM 37.0 °F 28.5 °F 28.0 °F 70% 30.47 in 10.0 mi NNE 13.8 mph - N/A   Clear
1:54 AM 36.0 °F 28.0 °F 28.9 °F 76% 30.45 in 10.0 mi NNE 11.5 mph - N/A   Clear
2:54 AM 35.1 °F 27.4 °F 27.0 °F 72% 30.45 in 10.0 mi NNE 10.4 mph - N/A   Clear
3:54 AM 35.1 °F 27.4 °F 28.0 °F 76% 30.46 in 10.0 mi North 10.4 mph - N/A   Clear
4:54 AM 33.1 °F 23.9 °F 27.0 °F 78% 30.46 in 10.0 mi North 12.7 mph - N/A   Clear
5:54 AM 32.0 °F 24.2 °F 26.1 °F 79% 30.50 in 10.0 mi North 9.2 mph - N/A   Clear
6:54 AM 30.9 °F 22.8 °F 26.1 °F 82% 30.52 in 10.0 mi North 9.2 mph - N/A   Clear
7:54 AM 33.1 °F 26.1 °F 26.1 °F 75% 30.53 in 10.0 mi NNE 8.1 mph - N/A   Clear
8:54 AM 36.0 °F 28.5 °F 26.1 °F 67% 30.53 in 10.0 mi NNE 10.4 mph - N/A   Clear
9:54 AM 39.9 °F 34.5 °F 27.0 °F 60% 30.53 in 10.0 mi NNE 8.1 mph - N/A   Clear
10:54 AM 43.0 °F 40.3 °F 28.0 °F 56% 30.49 in 10.0 mi North 4.6 mph - N/A   Clear
11:54 AM 45.0 °F 40.6 °F 28.9 °F 53% 30.46 in 10.0 mi North 8.1 mph - N/A   Clear
12:54 PM 48.0 °F - 28.0 °F 46% 30.43 in 10.0 mi North 10.4 mph - N/A   Clear
1:54 PM 48.9 °F - 28.9 °F 46% 30.42 in 10.0 mi North 8.1 mph - N/A   Clear
2:54 PM 48.9 °F - 28.9 °F 46% 30.40 in 10.0 mi North 8.1 mph - N/A   Clear
3:54 PM 48.9 °F - 28.9 °F 46% 30.36 in 10.0 mi ENE 10.4 mph - N/A   Partly Cloudy
4:54 PM 46.9 °F - 30.0 °F 52% 30.37 in 10.0 mi NNE 5.8 mph - N/A   Partly Cloudy
5:54 PM 42.1 °F 38.4 °F 30.9 °F 65% 30.40 in 10.0 mi NNW 5.8 mph - N/A   Partly Cloudy
6:54 PM 41.0 °F 35.8 °F 30.9 °F 67% 30.43 in 10.0 mi North 8.1 mph - N/A   Partly Cloudy
7:54 PM 39.0 °F 34.0 °F 30.9 °F 73% 30.44 in 10.0 mi North 6.9 mph - N/A   Clear
8:54 PM 37.9 °F 34.4 °F 30.9 °F 76% 30.45 in 10.0 mi North 4.6 mph - N/A   Clear
9:54 PM 37.0 °F 34.5 °F 30.9 °F 79% 30.43 in 10.0 mi NNE 3.5 mph - N/A   Clear
10:54 PM 35.1 °F 31.0 °F 30.0 °F 82% 30.42 in 10.0 mi North 4.6 mph - N/A   Clear